Weather History for Montpelier, VT

Change the Weather History Date:

Friday, November 9, 2012

  Actual Average Record
Temperature  
Mean Temperature 35 °F 38 °F  
Max Temperature 42 °F 47 °F 69 °F (2009)
Min Temperature 27 °F 29 °F 10 °F (1971)
Degree Days  
Heating Degree Days 30 27  
Month to date heating degree days 285 232  
Since 1 July heating degree days 1096 1188  
Cooling Degree Days 0 0  
Month to date cooling degree days 0  
Year to date cooling degree days 264  
Moisture  
Dew Point 26 °F    
Average Humidity 64    
Maximum Humidity 85    
Minimum Humidity 43    
Precipitation  
Precipitation 0.00 in 0.10 in 1.18 in (1996)
Month to date precipitation 0.07 0.98  
Year to date precipitation 29.52 32.34  
Sea Level Pressure  
Sea Level Pressure 30.06 in    
Wind  
Wind Speed 8 mph (NW)    
Max Wind Speed 22 mph    
Max Gust Speed 29 mph    
Visibility 10 miles    
Events      
T = Trace of Precipitation, MM = Missing Value Source: NWS Daily Summary

Daily Weather History Graph

Daily Weather History Graph

Search for Another Location

Airport:

Trip Planner

Search our weather history database for the weather conditions in past years. The results will help you decide how hot, cold, wet, or windy it might be!

Date:

Astronomy

Nov. 09, 2012 Rise Set
Actual Time 6:38 AM EST 4:29 PM EST
Civil Twilight 6:07 AM EST 5:00 PM EST
Nautical Twilight 5:32 AM EST 5:34 PM EST
Astronomical Twilight 4:58 AM EST 6:08 PM EST
Moon 1:23 AM EST (11/9) 1:49 PM EST (11/9)
Length of Visible Light 10h 52m
Length of Day
9h 50m
Waning Crescent, 23% of the Moon is Illuminated
Nov 9
Waning Crescent
Nov 13
New
Nov 20
First Quarter
Nov 28
Full
Dec 6
Last Quarter

Hourly Weather History & Observations

Time (EST) Temp. Windchill Dew Point Humidity Pressure Visibility Wind Dir Wind Speed Gust Speed Precip Events Conditions
12:51 AM 33.1 °F 25.5 °F 27.0 °F 78% 29.97 in 10.0 mi NNW 9.2 mph - N/A   Overcast
1:51 AM 33.1 °F 26.9 °F 27.0 °F 78% 29.98 in 10.0 mi NNW 6.9 mph - N/A   Overcast
2:51 AM 32.0 °F 27.5 °F 26.1 °F 79% 29.97 in 10.0 mi NW 4.6 mph - N/A   Overcast
3:31 AM 30.2 °F 21.3 °F 26.6 °F 86% 29.93 in 10.0 mi NW 10.4 mph - N/A   Mostly Cloudy
3:51 AM 30.9 °F 22.2 °F 26.1 °F 82% 29.99 in 10.0 mi WNW 10.4 mph - N/A   Overcast
4:51 AM 30.0 °F 22.4 °F 25.0 °F 82% 30.00 in 10.0 mi WNW 8.1 mph - N/A   Overcast
5:51 AM 28.4 °F 24.6 °F 24.8 °F 86% 29.97 in 10.0 mi Variable 3.5 mph - N/A   Clear
6:51 AM 26.6 °F 20.0 °F 23.0 °F 86% 29.99 in 10.0 mi NW 5.8 mph - N/A   Clear
7:51 AM 28.0 °F 24.2 °F 25.0 °F 88% 30.06 in 10.0 mi NW 3.5 mph - N/A   Clear
8:51 AM 30.9 °F 22.8 °F 24.1 °F 76% 30.07 in 10.0 mi NW 9.2 mph - N/A   Clear
9:51 AM 33.8 °F 27.0 °F 24.8 °F 70% 30.02 in 10.0 mi NNW 8.1 mph - N/A   Partly Cloudy
10:51 AM 37.0 °F 30.4 °F 24.1 °F 59% 30.06 in 10.0 mi West 9.2 mph - N/A   Clear
11:51 AM 39.0 °F 30.6 °F 21.9 °F 50% 30.05 in 10.0 mi NW 15.0 mph 23.0 mph N/A   Clear
12:51 PM 39.9 °F 31.4 °F 19.9 °F 45% 30.05 in 10.0 mi NW 16.1 mph 23.0 mph N/A   Clear
1:51 PM 42.1 °F 35.2 °F 21.9 °F 45% 30.06 in 10.0 mi NW 12.7 mph 18.4 mph N/A   Clear
2:51 PM 39.0 °F 31.8 °F 21.9 °F 50% 30.08 in 10.0 mi NNW 11.5 mph - N/A   Overcast
3:51 PM 39.0 °F - 23.0 °F 53% 30.09 in 10.0 mi Calm Calm - N/A   Overcast
4:51 PM 37.9 °F 35.5 °F 23.0 °F 55% 30.10 in 10.0 mi WNW 3.5 mph - N/A   Overcast
5:35 PM 37.4 °F 34.9 °F 24.8 °F 60% 30.07 in 10.0 mi NW 3.5 mph - N/A   Overcast
5:51 PM 37.9 °F 35.5 °F 25.0 °F 60% 30.12 in 10.0 mi NW 3.5 mph - N/A   Overcast
6:51 PM 37.9 °F 34.4 °F 28.9 °F 70% 30.12 in 10.0 mi WNW 4.6 mph - N/A   Overcast
7:51 PM 37.9 °F 33.5 °F 30.0 °F 73% 30.14 in 10.0 mi NNW 5.8 mph - N/A   Overcast
8:51 PM 37.9 °F 33.5 °F 30.9 °F 76% 30.14 in 10.0 mi Variable 5.8 mph - N/A   Overcast
9:51 PM 39.0 °F 32.8 °F 32.0 °F 76% 30.15 in 10.0 mi NW 9.2 mph - N/A   Overcast
10:51 PM 37.9 °F 32.1 °F 33.1 °F 83% 30.15 in 10.0 mi WNW 8.1 mph - N/A   Overcast
11:49 PM 37.4 °F 31.4 °F 33.8 °F 87% 30.12 in 10.0 mi WNW 8.1 mph - N/A   Overcast
11:51 PM 37.9 °F 32.1 °F 33.1 °F 83% 30.15 in 10.0 mi WNW 8.1 mph - N/A   Overcast